• In Uzbekistan
  • List of Countries
  • For 7 days
  • Water Temperature
  • Satellite Maps
  • Weather Map
  • Weather Widgets
  • user-avatar
    Login

    Hourly Weather Barycz

    Today, 26 April, Thursday

    Time Temperature Precipitation Wind Pressure Humidity
    00:00 +13°C° 0 mm 3 mps 726 mmHg 87%
    01:00 +13°C° 0 mm 2 mps 726 mmHg 91%
    02:00 +12°C° 0 mm 2 mps 727 mmHg 92%
    03:00 +12°C° 0 mm 2 mps 727 mmHg 92%
    04:00 +10°C° 0 mm 2 mps 727 mmHg 92%
    05:00 +12°C° 0 mm 2 mps 727 mmHg 87%
    06:00 +13°C° 0 mm 2 mps 728 mmHg 82%
    07:00 +14°C° 0 mm 2 mps 728 mmHg 76%
    08:00 +14°C° 0.1 mm 2 mps 728 mmHg 73%
    09:00 +15°C° 0.1 mm 1 mps 728 mmHg 69%
    10:00 +15°C° 0.1 mm 1 mps 728 mmHg 66%
    11:00 +15°C° 0.6 mm 1 mps 728 mmHg 70%
    12:00 +14°C° 0.6 mm 1 mps 728 mmHg 75%
    13:00 +14°C° 0.6 mm 1 mps 728 mmHg 79%
    14:00 +14°C° 0.7 mm 1 mps 728 mmHg 82%
    15:00 +14°C° 0.7 mm 1 mps 728 mmHg 84%
    16:00 +13°C° 0.7 mm 2 mps 728 mmHg 87%
    17:00 +13°C° 0.2 mm 2 mps 728 mmHg 87%
    18:00 +12°C° 0.2 mm 2 mps 728 mmHg 88%
    19:00 +11°C° 0.2 mm 3 mps 728 mmHg 89%
    20:00 +10°C° 0 mm 3 mps 729 mmHg 88%
    21:00 +10°C° 0 mm 3 mps 729 mmHg 87%
    22:00 +9°C° 0 mm 3 mps 729 mmHg 87%
    23:00 +8°C° 0 mm 3 mps 730 mmHg 87%

    Tomorrow, 27 April, Friday

    Time Temperature Precipitation Wind Pressure Humidity
    00:00 +8°C° 0 mm 3 mps 730 mmHg 88%
    01:00 +7°C° 0 mm 2 mps 730 mmHg 88%
    02:00 +6°C° 0 mm 2 mps 730 mmHg 90%
    03:00 +5°C° 0 mm 2 mps 731 mmHg 91%
    04:00 +5°C° 0 mm 2 mps 731 mmHg 92%
    05:00 +6°C° 0 mm 2 mps 731 mmHg 88%
    06:00 +7°C° 0 mm 2 mps 732 mmHg 83%
    07:00 +9°C° 0 mm 2 mps 732 mmHg 79%
    08:00 +10°C° 0 mm 2 mps 732 mmHg 70%
    09:00 +13°C° 0 mm 2 mps 732 mmHg 62%
    10:00 +14°C° 0 mm 2 mps 733 mmHg 53%
    11:00 +15°C° 0 mm 2 mps 732 mmHg 50%
    12:00 +16°C° 0 mm 2 mps 732 mmHg 47%
    13:00 +18°C° 0 mm 1 mps 732 mmHg 44%
    14:00 +18°C° 0 mm 1 mps 732 mmHg 44%
    15:00 +18°C° 0 mm 1 mps 732 mmHg 44%
    16:00 +16°C° 0 mm 1 mps 731 mmHg 45%
    17:00 +15°C° 0 mm 1 mps 731 mmHg 51%
    18:00 +13°C° 0 mm 2 mps 731 mmHg 57%
    19:00 +10°C° 0 mm 2 mps 731 mmHg 63%
    20:00 +10°C° 0 mm 2 mps 731 mmHg 66%
    21:00 +9°C° 0 mm 2 mps 731 mmHg 70%
    22:00 +8°C° 0 mm 3 mps 731 mmHg 73%
    23:00 +8°C° 0 mm 3 mps 731 mmHg 74%

    Day after tomorrow, 28 April, Saturday

    Time Temperature Precipitation Wind Pressure Humidity
    00:00 +8°C° 0 mm 2 mps 731 mmHg 76%
    01:00 +7°C° 0 mm 2 mps 731 mmHg 77%
    02:00 +7°C° 0 mm 2 mps 731 mmHg 76%
    03:00 +7°C° 0 mm 2 mps 731 mmHg 75%
    04:00 +7°C° 0 mm 2 mps 731 mmHg 75%
    05:00 +9°C° 0 mm 3 mps 731 mmHg 70%
    06:00 +11°C° 0 mm 3 mps 731 mmHg 66%
    07:00 +12°C° 0 mm 3 mps 731 mmHg 61%
    08:00 +14°C° 0 mm 3 mps 731 mmHg 57%
    09:00 +18°C° 0 mm 4 mps 731 mmHg 52%
    10:00 +20°C° 0 mm 4 mps 731 mmHg 48%
    11:00 +21°C° 0 mm 4 mps 731 mmHg 47%
    12:00 +22°C° 0 mm 4 mps 731 mmHg 45%
    13:00 +23°C° 0 mm 4 mps 730 mmHg 44%
    14:00 +23°C° 0 mm 4 mps 730 mmHg 47%
    15:00 +22°C° 0 mm 4 mps 730 mmHg 49%
    16:00 +22°C° 0 mm 3 mps 730 mmHg 52%
    17:00 +20°C° 0 mm 3 mps 730 mmHg 58%
    18:00 +18°C° 0 mm 3 mps 730 mmHg 65%
    19:00 +17°C° 0 mm 3 mps 730 mmHg 72%
    20:00 +16°C° 0 mm 3 mps 730 mmHg 74%
    21:00 +16°C° 0 mm 3 mps 730 mmHg 76%
    22:00 +14°C° 0 mm 3 mps 730 mmHg 78%
    23:00 +14°C° 0 mm 3 mps 730 mmHg 80%

    29 April, Sunday

    Time Temperature Precipitation Wind Pressure Humidity
    00:00 +14°C° 0 mm 3 mps 730 mmHg 82%
    01:00 +14°C° 0 mm 3 mps 730 mmHg 84%
    02:00 +14°C° 0.2 mm 3 mps 730 mmHg 86%
    03:00 +14°C° 0.2 mm 3 mps 730 mmHg 87%
    04:00 +14°C° 0.2 mm 3 mps 730 mmHg 89%
    05:00 +16°C° 0.2 mm 3 mps 730 mmHg 86%
    06:00 +17°C° 0.2 mm 3 mps 730 mmHg 83%
    07:00 +18°C° 0.2 mm 4 mps 730 mmHg 80%
    08:00 +20°C° 0 mm 4 mps 730 mmHg 73%
    09:00 +22°C° 0 mm 5 mps 730 mmHg 65%
    10:00 +25°C° 0 mm 5 mps 730 mmHg 58%
    11:00 +25°C° 0 mm 5 mps 730 mmHg 55%
    12:00 +26°C° 0 mm 5 mps 730 mmHg 52%
    13:00 +27°C° 0 mm 5 mps 729 mmHg 49%
    14:00 +27°C° 0 mm 4 mps 729 mmHg 51%
    15:00 +27°C° 0 mm 4 mps 729 mmHg 52%
    16:00 +27°C° 0 mm 4 mps 729 mmHg 54%
    17:00 +24°C° 0 mm 3 mps 728 mmHg 61%
    18:00 +21°C° 0 mm 3 mps 728 mmHg 69%
    19:00 +19°C° 0 mm 2 mps 728 mmHg 76%
    20:00 +18°C° 0 mm 2 mps 728 mmHg 79%
    21:00 +17°C° 0 mm 2 mps 728 mmHg 82%
    22:00 +17°C° 0 mm 3 mps 728 mmHg 85%
    23:00 +16°C° 0 mm 3 mps 727 mmHg 84%

    30 April, Monday

    Time Temperature Precipitation Wind Pressure Humidity
    00:00 +16°C° 0 mm 3 mps 727 mmHg 83%
    01:00 +16°C° 0 mm 3 mps 727 mmHg 83%
    02:00 +14°C° 0 mm 3 mps 727 mmHg 82%
    03:00 +14°C° 0 mm 3 mps 727 mmHg 82%
    04:00 +14°C° 0 mm 3 mps 726 mmHg 81%
    05:00 +15°C° 0 mm 4 mps 727 mmHg 75%
    06:00 +17°C° 0 mm 5 mps 727 mmHg 68%
    07:00 +19°C° 0 mm 6 mps 727 mmHg 61%
    08:00 +20°C° 0 mm 6 mps 727 mmHg 57%
    09:00 +21°C° 0 mm 6 mps 727 mmHg 53%
    10:00 +23°C° 0 mm 7 mps 727 mmHg 49%
    11:00 +23°C° 0 mm 7 mps 727 mmHg 49%
    12:00 +24°C° 0 mm 6 mps 727 mmHg 48%
    13:00 +24°C° 0 mm 6 mps 726 mmHg 47%
    14:00 +24°C° 0 mm 6 mps 726 mmHg 50%
    15:00 +25°C° 0 mm 5 mps 726 mmHg 53%
    16:00 +25°C° 0 mm 5 mps 726 mmHg 56%
    17:00 +22°C° 0.5 mm 4 mps 727 mmHg 63%
    18:00 +20°C° 0.5 mm 3 mps 727 mmHg 70%
    19:00 +18°C° 0.5 mm 2 mps 727 mmHg 77%
    20:00 +17°C° 0.6 mm 2 mps 727 mmHg 81%
    21:00 +16°C° 0.6 mm 2 mps 728 mmHg 85%
    22:00 +16°C° 0.6 mm 1 mps 728 mmHg 88%
    23:00 +15°C° 0.1 mm 1 mps 728 mmHg 90%

    1 May, Tuesday

    Time Temperature Precipitation Wind Pressure Humidity
    00:00 +15°C° 0.1 mm 1 mps 728 mmHg 91%
    01:00 +13°C° 0.1 mm 0 mps 728 mmHg 92%
    02:00 +14°C° 0.1 mm 1 mps 729 mmHg 93%
    03:00 +14°C° 0.1 mm 1 mps 729 mmHg 94%
    04:00 +13°C° 0.1 mm 1 mps 729 mmHg 95%
    05:00 +14°C° 0 mm 1 mps 729 mmHg 91%
    06:00 +16°C° 0 mm 2 mps 729 mmHg 88%
    07:00 +17°C° 0 mm 2 mps 730 mmHg 84%
    08:00 +18°C° 0.3 mm 2 mps 730 mmHg 78%
    09:00 +20°C° 0.3 mm 3 mps 730 mmHg 73%
    10:00 +22°C° 0.3 mm 3 mps 730 mmHg 67%
    11:00 +22°C° 0.7 mm 3 mps 729 mmHg 64%
    12:00 +24°C° 0.7 mm 3 mps 729 mmHg 62%
    13:00 +25°C° 0.7 mm 3 mps 729 mmHg 59%
    14:00 +25°C° 0.2 mm 3 mps 729 mmHg 60%
    15:00 +25°C° 0.2 mm 3 mps 728 mmHg 60%
    16:00 +25°C° 0.2 mm 3 mps 728 mmHg 60%
    17:00 +23°C° 0.1 mm 2 mps 728 mmHg 68%
    18:00 +20°C° 0.1 mm 2 mps 728 mmHg 75%
    19:00 +19°C° 0.1 mm 2 mps 727 mmHg 82%
    20:00 +18°C° 0 mm 2 mps 727 mmHg 84%
    21:00 +17°C° 0 mm 2 mps 727 mmHg 86%
    22:00 +16°C° 0 mm 2 mps 727 mmHg 88%
    23:00 +16°C° 0 mm 2 mps 727 mmHg 88%
    Show more